Location: Poinsettia Observatory
(32.9673°N, 117.0346°W)
Time: 07:52:36
(UTC-07:00)

Daily predictions for brighter satellites

Satellite Brightness Start Highest point End
(mag) Time Altitude Azimuth Time Altitude Azimuth Time Altitude Azimuth
Cosmos 2237 4.4 19:40:14 10° SSW 19:45:54 80° WNW 19:51:37 10° NNE
Cosmos 2322 4.1 19:42:33 10° SSW 19:48:09 71° WNW 19:53:50 10° NNE
SJ-6B 3.4 19:46:43 10° SE 19:50:31 39° ENE 19:54:15 10° N
Cosmos 2074 Rocket 4.1 19:46:02 10° S 19:52:19 86° E 19:58:38 10° N
HJ-1C 3.5 19:49:29 10° SSE 19:52:44 52° ENE 19:56:00 10° N
SPOT 3 Rocket 4.0 19:47:44 10° S 19:52:53 69° WSW 19:58:02 10° NNW
Cosmos 1939 Rocket 4.4 19:51:08 10° ESE 19:53:49 18° ENE 19:56:32 10° NNE
Thor Agena Rocket 3.8 19:51:48 10° NNE 19:56:51 47° E 20:01:54 10° S
Cosmos 1610 Rocket 4.5 19:53:06 10° S 19:59:06 62° E 20:05:10 10° NNE
Sakura Rocket 3.8 19:56:14 10° WSW 20:00:56 37° S 20:04:19 12° ESE
ATLAS 2A CENTAUR R/B 3.7 19:58:29 10° W 20:05:43 33° SSW 20:08:05 12° SE
Sich 1 3.6 20:02:26 10° NNE 20:06:22 35° E 20:10:16 10° SSE
Cosmos 1300 4.0 20:02:49 10° SSW 20:06:28 45° W 20:10:09 10° N
NOSS 2-1 (C) 4.0 20:03:04 10° SW 20:06:37 52° WNW 20:10:18 10° NNE
NOSS 2-1 (D) 4.1 20:04:04 10° SW 20:07:37 49° WNW 20:11:17 10° NNE
Cosmos 1809 Rocket 4.4 20:04:32 10° S 20:10:37 69° E 20:16:46 10° NNE
ATLAS 2AS CENTAUR R/B 3.9 20:10:58 10° NNW 20:17:47 31° NE 20:22:42 16° E
Cosmos 1980 4.1 20:17:46 10° S 20:23:01 40° ESE 20:28:18 10° NE
OAO 2 Rocket 3.4 20:19:21 10° WNW 20:24:35 78° N 20:28:16 19° E
H-2A R/B 2.3 20:21:12 10° W 20:24:37 21° SW 20:25:52 14° S
CZ-2D R/B 3.5 20:21:05 10° S 20:24:52 71° W 20:28:39 10° NNW
Cosmos 1633 Rocket 3.3 20:22:45 10° N 20:26:56 45° E 20:29:56 17° SSE
Nadezhda 3 Rocket 4.0 20:21:02 10° N 20:27:17 63° E 20:33:34 10° SSE
Meteor 2-14 Rocket 4.4 20:22:24 10° S 20:28:26 72° E 20:34:32 10° N
Cosmos 1455 2.2 20:26:36 10° S 20:30:20 58° E 20:34:07 10° NNE
Meteor 1-27 4.2 20:24:59 10° S 20:30:39 61° E 20:36:15 10° NNE
Cosmos 2333 Rocket 2.1 20:25:58 10° SSW 20:31:37 84° ESE 20:37:18 10° NNE
ERS-2 2.1 20:28:54 10° S 20:32:33 82° WSW 20:36:14 10° NNW
Cosmos 1515 Rocket 4.1 20:29:49 16° SSE 20:32:52 36° E 20:36:58 10° NNE
Cosmos 2228 Rocket 3.6 20:30:12 17° SSE 20:33:01 36° E 20:37:03 10° NNE
Meteor 2-2 Rocket 4.4 20:29:55 10° S 20:35:42 84° W 20:41:40 10° N
Cosmos 1408 4.3 20:34:12 10° NNE 20:36:09 17° ENE 20:36:09 17° ENE
COSMOS 2428 3.8 20:31:22 10° SW 20:36:54 49° WNW 20:42:27 10° N
Meteor 2-16 Rocket 4.4 20:31:53 10° S 20:37:58 70° E 20:44:04 10° NNE
Meteor 2-15 Rocket 4.4 20:33:12 10° N 20:39:20 78° E 20:45:27 10° S
Cosmos 1892 2.6 20:37:39 10° N 20:41:33 80° E 20:44:02 21° S
Cosmos 1844 Rocket 2.7 20:38:33 10° NNW 20:44:15 90° WSW 20:48:27 19° SSE
SL-8 R/B 3.9 20:39:31 10° WSW 20:44:17 72° NW 20:49:06 10° NE
Cosmos 1844 3.7 20:42:22 10° NNW 20:48:06 75° ENE 20:51:30 25° SSE
H-2A R/B 3.6 20:48:28 17° ENE 20:48:29 17° ENE 20:51:35 10° NNE
YAOGAN 6 2.7 20:46:47 21° S 20:49:05 70° W 20:52:42 10° NNW
Cosmos 2219 Rocket 2.9 20:44:25 10° SW 20:49:58 56° WNW 20:55:32 10° N
Cosmos 2237 Rocket 2.1 20:45:01 10° S 20:50:34 67° ESE 20:56:09 10° NNE
BREEZE-M DEB (TANK) 3.0 20:47:03 10° NW 20:51:30 81° SW 20:52:42 40° SE
Cosmos 1328 Rocket 3.6 20:48:20 10° S 20:52:42 81° W 20:57:09 10° N
Cosmos 1371 Rocket 4.3 20:52:01 23° SSE 20:54:56 44° ESE 21:00:00 10° NNE
Genesis I 4.3 20:51:40 10° N 20:55:16 29° NE 20:55:26 29° ENE
Resurs 01 Rocket 1.6 20:53:39 23° S 20:56:25 82° WSW 21:00:52 10° NNW
USA 267 3.5 20:57:18 10° ENE 21:03:26 42° SE 21:09:32 10° SSW
Cosmos 2278 Rocket 2.7 20:59:03 10° N 21:04:24 41° ENE 21:05:28 37° E
OAO 1 4.4 20:59:02 10° WNW 21:04:33 89° SSW 21:06:22 44° ESE
NOAA 11 4.1 21:02:19 33° SSE 21:04:52 74° ENE 21:10:22 10° N
ATLAS CENTAUR R/B 3.0 21:03:23 10° WSW 21:06:39 31° WNW 21:10:01 10° N
Cosmos 2251 Rocket 4.3 21:02:36 10° NNW 21:07:48 51° WSW 21:11:37 18° S
Cosmos 1470 Rocket 3.4 21:04:46 10° N 21:09:11 74° E 21:09:51 61° SE
Cosmos 1959 Rocket 4.4 21:07:36 23° S 21:11:30 69° E 21:17:36 10° NNE
Cosmos 1727 Rocket 4.5 21:10:26 10° NNE 21:16:08 38° E 21:16:20 38° E
Cosmos 2056 Rocket 3.6 21:15:53 54° SE 21:16:30 57° ESE 21:21:48 10° NNE
ASTRO E2 4.3 21:15:08 10° SW 21:17:03 24° SW 21:17:03 24° SW
Cosmos 2098 Rocket 3.2 21:20:02 66° E 21:20:02 66° E 21:24:04 10° NNE
Cosmos 1825 3.0 21:18:47 10° N 21:21:24 41° NNE 21:21:24 41° NNE
deb Centaur AC-2 4.4 21:19:19 10° W 21:23:24 53° SSW 21:23:24 53° SSW
Cosmos 2218 Rocket 4.0 21:22:06 21° S 21:26:34 88° W 21:32:59 10° N
SL-08 R/B 4.4 21:26:47 42° S 21:29:02 77° E 21:35:26 10° N
Cosmos 1624 Rocket 3.8 21:32:55 65° SSW 21:33:42 90° ESE 21:38:54 10° NNE
Cosmos 1869 4.1 21:38:19 49° NW 21:38:19 49° NW 21:41:34 10° N
Cosmos 1933 Rocket 3.9 21:33:32 10° NNW 21:37:45 60° W 21:37:45 60° W
Cosmos 2366 rocket 4.0 21:36:09 31° SSW 21:39:20 77° W 21:45:37 10° N
SL-16 R/B 2.5 21:41:17 53° NE 21:41:17 53° NE 21:45:41 10° NNE
ARGOS 3.1 21:48:41 81° N 21:48:41 81° N 21:53:45 10° NNW
GEOS 3 Rocket 3.7 21:44:06 10° NNE 21:49:25 75° NW 21:52:21 27° SW
MetOp-B 4.2 21:53:32 71° N 21:53:32 71° N 21:58:16 10° NNW
Cosmos 1339 Rocket 4.4 21:55:34 10° N 22:01:39 75° W 22:01:50 75° WSW
Cosmos 2344 3.4 22:08:24 76° SSE 22:08:54 80° ESE 22:16:51 10° NNE
ATLAS 2AS CENTAUR R/B 3.2 22:01:40 10° NW 22:09:05 53° WSW 22:10:10 49° SW
H-2A R/B 3.4 22:29:05 35° NW 22:29:05 35° NW 22:32:20 10° NNW
ERS-1 Rocket 4.4 22:30:13 34° NW 22:30:13 34° NW 22:33:18 10° NNW
NOSS 3-4 (A) 4.1 22:32:24 10° NNW 22:38:28 66° N 22:38:28 66° N
NOSS 3-4 (C) 4.1 22:32:30 10° NNW 22:38:33 65° N 22:38:33 65° N
USA 267 4.1 22:40:12 10° NNE 22:46:22 46° NW 22:52:32 10° WSW
Cosmos 2278 Rocket 4.2 22:43:54 10° NW 22:47:21 21° W 22:47:21 21° W
ATLAS 2A CENTAUR R/B 4.3 22:43:49 10° WSW 22:53:55 39° SW 22:53:55 39° SW
